• en France
  • Liste des pays
  • À 7 jours
  • Température de l'eau
  • Carte satellitaire
  • Carte météo
  • Widgets météo
  • user-avatar
    Se connecter

    Météo par heure à Setif

    Ce jour, 22 Juin, Vendredi

    Heure Température Précipitation Vent Pression Humidité
    00:00 +21°C° 0 mm 1 m/s 674 mmHg 67%
    01:00 +21°C° 0 mm 1 m/s 673 mmHg 67%
    02:00 +21°C° 0 mm 1 m/s 673 mmHg 68%
    03:00 +20°C° 0 mm 1 m/s 673 mmHg 69%
    04:00 +21°C° 0 mm 1 m/s 673 mmHg 66%
    05:00 +21°C° 0 mm 1 m/s 673 mmHg 64%
    06:00 +22°C° 0 mm 1 m/s 674 mmHg 61%
    07:00 +23°C° 0 mm 2 m/s 674 mmHg 55%
    08:00 +25°C° 0 mm 2 m/s 674 mmHg 48%
    09:00 +26°C° 0 mm 3 m/s 675 mmHg 41%
    10:00 +27°C° 0 mm 3 m/s 675 mmHg 39%
    11:00 +28°C° 0 mm 3 m/s 675 mmHg 36%
    12:00 +29°C° 0 mm 3 m/s 675 mmHg 34%
    13:00 +29°C° 0 mm 3 m/s 675 mmHg 34%
    14:00 +29°C° 0 mm 3 m/s 675 mmHg 34%
    15:00 +29°C° 0 mm 3 m/s 674 mmHg 34%
    16:00 +28°C° 0 mm 3 m/s 674 mmHg 39%
    17:00 +27°C° 0 mm 4 m/s 674 mmHg 43%
    18:00 +26°C° 0 mm 4 m/s 674 mmHg 48%
    19:00 +25°C° 0 mm 4 m/s 674 mmHg 53%
    20:00 +24°C° 0 mm 3 m/s 674 mmHg 57%
    21:00 +21°C° 0 mm 2 m/s 674 mmHg 62%
    22:00 +21°C° 0 mm 2 m/s 674 mmHg 62%
    23:00 +21°C° 0 mm 2 m/s 674 mmHg 62%

    Demain, 23 Juin, Samedi

    Heure Température Précipitation Vent Pression Humidité
    00:00 +21°C° 0 mm 1 m/s 674 mmHg 62%
    01:00 +21°C° 0 mm 1 m/s 674 mmHg 62%
    02:00 +21°C° 0 mm 1 m/s 674 mmHg 62%
    03:00 +20°C° 0 mm 1 m/s 674 mmHg 62%
    04:00 +21°C° 0 mm 1 m/s 674 mmHg 59%
    05:00 +21°C° 0 mm 1 m/s 674 mmHg 55%
    06:00 +21°C° 0 mm 2 m/s 674 mmHg 52%
    07:00 +23°C° 0 mm 2 m/s 675 mmHg 46%
    08:00 +25°C° 0 mm 2 m/s 675 mmHg 41%
    09:00 +26°C° 0 mm 2 m/s 676 mmHg 35%
    10:00 +27°C° 0 mm 2 m/s 676 mmHg 33%
    11:00 +28°C° 0 mm 2 m/s 676 mmHg 31%
    12:00 +29°C° 0 mm 2 m/s 676 mmHg 29%
    13:00 +29°C° 0 mm 3 m/s 676 mmHg 29%
    14:00 +30°C° 0 mm 4 m/s 676 mmHg 29%
    15:00 +30°C° 0 mm 4 m/s 676 mmHg 29%
    16:00 +29°C° 0 mm 4 m/s 676 mmHg 33%
    17:00 +28°C° 0 mm 4 m/s 675 mmHg 38%
    18:00 +26°C° 0 mm 4 m/s 675 mmHg 42%
    19:00 +25°C° 0 mm 4 m/s 675 mmHg 47%
    20:00 +24°C° 0 mm 3 m/s 675 mmHg 52%
    21:00 +23°C° 0 mm 2 m/s 675 mmHg 57%
    22:00 +21°C° 0 mm 2 m/s 675 mmHg 58%
    23:00 +22°C° 0 mm 1 m/s 675 mmHg 58%

    Après-demain, 24 Juin, Dimanche

    Heure Température Précipitation Vent Pression Humidité
    00:00 +21°C° 0 mm 1 m/s 674 mmHg 59%
    01:00 +21°C° 0 mm 1 m/s 674 mmHg 58%
    02:00 +21°C° 0 mm 1 m/s 674 mmHg 58%
    03:00 +20°C° 0 mm 1 m/s 673 mmHg 58%
    04:00 +21°C° 0 mm 1 m/s 674 mmHg 54%
    05:00 +22°C° 0 mm 1 m/s 674 mmHg 50%
    06:00 +23°C° 0 mm 1 m/s 674 mmHg 46%
    07:00 +24°C° 0 mm 2 m/s 675 mmHg 41%
    08:00 +26°C° 0 mm 2 m/s 675 mmHg 36%
    09:00 +27°C° 0 mm 3 m/s 675 mmHg 32%
    10:00 +28°C° 0 mm 3 m/s 676 mmHg 30%
    11:00 +29°C° 0 mm 4 m/s 676 mmHg 28%
    12:00 +30°C° 0 mm 4 m/s 676 mmHg 26%
    13:00 +30°C° 0 mm 4 m/s 675 mmHg 26%
    14:00 +30°C° 0 mm 4 m/s 675 mmHg 26%
    15:00 +32°C° 0 mm 4 m/s 675 mmHg 26%
    16:00 +30°C° 0 mm 4 m/s 674 mmHg 28%
    17:00 +29°C° 0 mm 4 m/s 674 mmHg 31%
    18:00 +28°C° 0 mm 3 m/s 674 mmHg 33%
    19:00 +27°C° 0 mm 3 m/s 674 mmHg 37%
    20:00 +26°C° 0 mm 2 m/s 674 mmHg 40%
    21:00 +25°C° 0 mm 1 m/s 674 mmHg 43%
    22:00 +24°C° 0 mm 1 m/s 673 mmHg 45%
    23:00 +23°C° 0 mm 1 m/s 673 mmHg 46%

    25 Juin, Lundi

    Heure Température Précipitation Vent Pression Humidité
    00:00 +23°C° 0 mm 1 m/s 673 mmHg 47%
    01:00 +22°C° 0 mm 1 m/s 672 mmHg 48%
    02:00 +22°C° 0 mm 1 m/s 672 mmHg 48%
    03:00 +21°C° 0 mm 1 m/s 672 mmHg 49%
    04:00 +22°C° 0 mm 1 m/s 672 mmHg 47%
    05:00 +22°C° 0 mm 1 m/s 672 mmHg 45%
    06:00 +23°C° 0 mm 1 m/s 673 mmHg 43%
    07:00 +24°C° 0 mm 2 m/s 673 mmHg 40%
    08:00 +26°C° 0 mm 2 m/s 674 mmHg 36%
    09:00 +27°C° 0 mm 3 m/s 674 mmHg 32%
    10:00 +28°C° 0 mm 4 m/s 675 mmHg 30%
    11:00 +29°C° 0 mm 4 m/s 675 mmHg 29%
    12:00 +30°C° 0 mm 5 m/s 675 mmHg 27%
    13:00 +30°C° 0 mm 5 m/s 675 mmHg 27%
    14:00 +30°C° 0 mm 5 m/s 675 mmHg 28%
    15:00 +30°C° 0 mm 5 m/s 674 mmHg 28%
    16:00 +29°C° 0 mm 5 m/s 674 mmHg 31%
    17:00 +27°C° 0 mm 5 m/s 674 mmHg 33%
    18:00 +26°C° 0 mm 4 m/s 674 mmHg 35%
    19:00 +25°C° 0 mm 4 m/s 674 mmHg 39%
    20:00 +24°C° 0 mm 3 m/s 674 mmHg 43%
    21:00 +23°C° 0 mm 2 m/s 674 mmHg 46%
    22:00 +21°C° 0 mm 2 m/s 674 mmHg 48%
    23:00 +20°C° 0 mm 2 m/s 673 mmHg 49%

    26 Juin, Mardi

    Heure Température Précipitation Vent Pression Humidité
    00:00 +20°C° 0 mm 2 m/s 673 mmHg 50%
    01:00 +20°C° 0 mm 1 m/s 673 mmHg 51%
    02:00 +20°C° 0 mm 1 m/s 672 mmHg 52%
    03:00 +19°C° 0 mm 1 m/s 672 mmHg 53%
    04:00 +20°C° 0 mm 1 m/s 672 mmHg 50%
    05:00 +21°C° 0 mm 1 m/s 673 mmHg 47%
    06:00 +21°C° 0 mm 1 m/s 673 mmHg 44%
    07:00 +23°C° 0 mm 1 m/s 674 mmHg 39%
    08:00 +24°C° 0 mm 2 m/s 674 mmHg 35%
    09:00 +26°C° 0 mm 2 m/s 675 mmHg 30%
    10:00 +27°C° 0 mm 3 m/s 675 mmHg 28%
    11:00 +28°C° 0 mm 3 m/s 675 mmHg 27%
    12:00 +29°C° 0 mm 4 m/s 675 mmHg 25%
    13:00 +30°C° 0 mm 4 m/s 674 mmHg 26%
    14:00 +30°C° 0 mm 4 m/s 674 mmHg 26%
    15:00 +30°C° 0 mm 5 m/s 674 mmHg 26%
    16:00 +29°C° 0 mm 5 m/s 674 mmHg 29%
    17:00 +28°C° 0 mm 4 m/s 674 mmHg 32%
    18:00 +27°C° 0 mm 4 m/s 674 mmHg 35%
    19:00 +26°C° 0 mm 3 m/s 674 mmHg 39%
    20:00 +24°C° 0 mm 3 m/s 674 mmHg 43%
    21:00 +23°C° 0 mm 2 m/s 673 mmHg 47%
    22:00 +23°C° 0 mm 2 m/s 673 mmHg 48%
    23:00 +21°C° 0 mm 2 m/s 673 mmHg 49%

    27 Juin, Mercredi

    Heure Température Précipitation Vent Pression Humidité
    00:00 +20°C° 0 mm 2 m/s 673 mmHg 51%
    01:00 +21°C° 0 mm 1 m/s 672 mmHg 52%
    02:00 +21°C° 0 mm 1 m/s 672 mmHg 53%
    03:00 +20°C° 0 mm 1 m/s 672 mmHg 54%
    04:00 +21°C° 0 mm 1 m/s 672 mmHg 51%
    05:00 +21°C° 0 mm 1 m/s 673 mmHg 47%
    06:00 +22°C° 0 mm 1 m/s 673 mmHg 44%
    07:00 +23°C° 0 mm 1 m/s 674 mmHg 40%
    08:00 +25°C° 0 mm 1 m/s 674 mmHg 35%
    09:00 +26°C° 0 mm 2 m/s 674 mmHg 30%
    10:00 +27°C° 0 mm 2 m/s 675 mmHg 28%
    11:00 +28°C° 0 mm 2 m/s 675 mmHg 26%
    12:00 +29°C° 0 mm 3 m/s 675 mmHg 24%
    13:00 +30°C° 0 mm 3 m/s 675 mmHg 24%
    14:00 +30°C° 0 mm 3 m/s 674 mmHg 24%
    15:00 +30°C° 0 mm 3 m/s 674 mmHg 24%
    16:00 +29°C° 0 mm 4 m/s 674 mmHg 28%
    17:00 +28°C° 0 mm 4 m/s 674 mmHg 31%
    18:00 +27°C° 0 mm 4 m/s 674 mmHg 34%
    19:00 +26°C° 0,1 mm 3 m/s 674 mmHg 38%
    20:00 +25°C° 0,1 mm 3 m/s 674 mmHg 42%
    21:00 +24°C° 0,1 mm 2 m/s 674 mmHg 45%
    22:00 +23°C° 0 mm 2 m/s 674 mmHg 47%
    23:00 +23°C° 0 mm 2 m/s 673 mmHg 48%
    Voir plus